Preview of NWS' New Version of Forecast
This preview is not operational and should not be used for support decisions.

Regional Weather Roundup (RWR)

Issued by National Weather Service (NWS)

                            
000
ASUS43 KLSX 232257
RWRMO 

WEATHER SUMMARY FOR MISSOURI
NATIONAL WEATHER SERVICE SPRINGFIELD MO
600 PM CDT THU MAY 23 2019

NOTE: "FAIR" INDICATES FEW OR NO CLOUDS BELOW 12,000 FEET WITH NO
       SIGNIFICANT WEATHER AND/OR OBSTRUCTIONS TO VISIBILITY.
       CURRENT SKY AND/OR WEATHER CONDITIONS ARE NOT AVAILABLE FOR
       CHILLICOTHE AND FARMINGTON.

MOZ001>031-035>038-043-044-053-054-240000-
...NORTHERN AND WESTERN MISSOURI...
  
CITY           SKY/WX    TMP DP  RH WIND       PRES   REMARKS
KANSAS CTY INT CLOUDY    73  60  63 E9        30.04S                  
LEE'S SUMMIT   CLOUDY    74  64  71 E9        30.03F                  
ST JOSEPH      CLOUDY    74  57  55 E9        30.02F                  
CHILLICOTHE      N/A     75  58  55 E3        30.07S                  
     
$$
MOZ066>068-077>081-088>096-101>105-240000-
...SOUTHWEST MISSOURI...
  
CITY           SKY/WX    TMP DP  RH WIND       PRES   REMARKS
SPRINGFIELD    SUNNY     85  69  58 S10       30.02S                  
JOPLIN         MOSUNNY   82  70  66 S16       29.99F                  
BRANSON        MOSUNNY   84  66  54 S9G16     30.06F                  
               
$$
MOZ032>034-039>042-045>050-055>058-069>072-240000-
...CENTRAL MISSOURI...  
  
CITY           SKY/WX    TMP DP  RH WIND       PRES   REMARKS
COLUMBIA       NOT AVBL                                               
ROLLA          SUNNY     79  70  74 E6        30.07S                  
SEDALIA        SUNNY     75  70  84 E6        30.05F                  
WARRENSBURG    SUNNY     77  68  73 NE5       30.02F                  
               
$$
MOZ051-052-059>065-240000-
...EAST CENTRAL MISSOURI...
  
CITY           SKY/WX    TMP DP  RH WIND       PRES   REMARKS
ST LOUIS INTL  MOSUNNY   80  64  58 CALM      30.07F                  
                   
$$
MOZ072>076-082>087-097>100-106>115-240000-
...SOUTH CENTRAL AND SOUTHEAST MISSOURI...
  
CITY           SKY/WX    TMP DP  RH WIND       PRES   REMARKS
CAPE GIRARDEAU FAIR      86  71  60 SW10      30.05R HX  91           
POPLAR BLUFF   FAIR      85  71  63 S18G30    30.04F HX  90           
WEST PLAINS    SUNNY     85  71  63 S12G21    30.07F HX  90           
                                       
$$